This demonstration page uses our WeatherBlox Daily Observations layout. Learn more.

Left ArrowRight Arrow

36.19886, -115.1175

Hourly Observations for May 11, 2021

Temp ( °F °C ) Dew Point ( °F °C ) Humidity (%) Winds ( mph kmh ) Pressure ( in mb ) Visibility ( mi km ) Precip ( " mm )
12:53 am 00:53 Clear 77 25 12 -11.1 8 8 NNW 14 22 29.79 1009 10 16.0934 N/A
1:53 am 01:53 Clear 76 24.4 12 -11.1 9 9 NNW 13 20 29.81 1010 10 16.0934 N/A
2:53 am 02:53 Clear 75 23.9 12 -11.1 9 9 N 8 13 29.83 1010 10 16.0934 N/A
3:53 am 03:53 Clear 72 22.2 12 -11.1 10 10 NE 9 15 29.85 1011 10 16.0934 N/A
4:53 am 04:53 Clear 72 22.2 12 -11.1 10 10 NNE 8 13 29.88 1012 10 16.0934 N/A
5:53 am 05:53 Sunny 69 20.6 13 -10.6 11 11 N 9 15 29.91 1013 10 16.0934 N/A
6:53 am 06:53 Sunny 70 21.1 14 -10 11 11 NNE 8 13 29.94 1014 10 16.0934 N/A
7:53 am 07:53 Sunny 73 22.8 15 -9.4 11 11 N 7 11 29.96 1014 10 16.0934 N/A
8:53 am 08:53 Sunny 75 23.9 14 -10 10 10 NNW 7 11 29.95 1014 10 16.0934 N/A
9:53 am 09:53 Sunny 77 25 15 -9.4 9 9 ESE 5 7 29.95 1014 10 16.0934 N/A
10:53 am 10:53 Sunny 78 25.6 15 -9.4 9 9 N N/A 29.95 1014 10 16.0934 N/A
11:53 am 11:53 Sunny 81 27.2 15 -9.4 8 8 undefined N/A 29.93 1014 10 16.0934 N/A
12:53 pm 12:53 Sunny 82 27.8 15 -9.4 8 8 N N/A 29.91 1013 10 16.0934 N/A
1:53 pm 13:53 Sunny 84 28.9 15 -9.4 7 7 ESE 8 13 29.89 1012 10 16.0934 N/A
2:53 pm 14:53 Sunny 86 30 15 -9.4 7 7 E 6 9 29.86 1011 10 16.0934 N/A
3:53 pm 15:53 Sunny 86 30 15 -9.4 7 7 SE 9 15 29.84 1011 10 16.0934 N/A
4:53 pm 16:53 Sunny 87 30.6 15 -9.4 7 7 E 6 9 29.83 1010 10 16.0934 N/A
5:53 pm 17:53 Sunny 87 30.6 15 -9.4 7 7 WSW 8 13 29.82 1010 10 16.0934 N/A
6:53 pm 18:53 Sunny 87 30.6 15 -9.4 7 7 W 6 9 29.82 1010 10 16.0934 N/A
7:53 pm 19:53 Clear 86 30 16 -8.9 7 7 SW 3 6 29.83 1010 10 16.0934 N/A
8:53 pm 20:53 Clear 82 27.8 15 -9.4 8 8 ENE 3 6 29.85 1011 10 16.0934 N/A
9:53 pm 21:53 Clear 81 27.2 17 -8.3 9 9 N N/A 29.87 1012 10 16.0934 N/A
10:53 pm 22:53 Clear 79 26.1 18 -7.8 10 10 N N/A 29.88 1012 10 16.0934 N/A
11:53 pm 23:53 Clear 75 23.9 26 -3.3 16 16 W 6 9 29.89 1012 10 16.0934 N/A

Powered by AerisWeather